Location: Castiglione Fibocchi
(43.5333°N, 11.7667°E)
Time: 09:35:27
(UTC+00:00)

Cosmos 1726 - Pass Details

Date: 15 August 2020
Orbit: 482 x 499 km, 82.5° (Epoch: 18 September)

Event Time Altitude Azimuth Distance (km) Brightness Sun altitude
Exits shadow 02:14:21 25° 302° (WNW) 1,026 3.5 -19.8°
Drops below altitude 10° 02:16:53 10° 344° (NNW) 1,679 5.1 -19.4°
Sets 02:19:15 0° 357° (N) 2,562 6.3 -19.1°
